Weather History for St. Joseph, MO

Change the Weather History Date:

Monday, May 6, 2013

  Actual Average Record
Temperature  
Mean Temperature 58 °F 61 °F  
Max Temperature 68 °F 72 °F 92 °F (2004)
Min Temperature 47 °F 50 °F 32 °F (1944)
Degree Days  
Heating Degree Days 7 6  
Month to date heating degree days 108 38  
Since 1 July heating degree days 5541 5376  
Cooling Degree Days 0 1  
Month to date cooling degree days 0 6  
Year to date cooling degree days 16 27  
Growing Degree Days 7 (Base 50)    
Moisture  
Dew Point 51 °F    
Average Humidity 82    
Maximum Humidity 100    
Minimum Humidity 63    
Precipitation  
Precipitation 0.00 in 0.19 in 3.97 in (2007)
Month to date precipitation 1.04 1.13  
Year to date precipitation 7.55 8.66  
Sea Level Pressure  
Sea Level Pressure 30.09 in    
Wind  
Wind Speed 6 mph (NNW)    
Max Wind Speed 14 mph    
Max Gust Speed 16 mph    
Visibility 7 miles    
Events Fog    
T = Trace of Precipitation, MM = Missing Value Source: NWS Daily Summary

Daily Weather History Graph

Daily Weather History Graph

Search for Another Location

Airport:

Trip Planner

Search our weather history database for the weather conditions in past years. The results will help you decide how hot, cold, wet, or windy it might be!

Date:

Astronomy

May. 06, 2013 Rise Set
Actual Time 6:13 AM CDT 8:19 PM CDT
Civil Twilight 5:44 AM CDT 8:48 PM CDT
Nautical Twilight 5:07 AM CDT 9:25 PM CDT
Astronomical Twilight 4:28 AM CDT 10:05 PM CDT
Moon 4:15 AM CDT (5/6) 5:20 PM CDT (5/6)
Length of Visible Light 15h 04m
Length of Day
14h 05m
Waning Crescent, 11% of the Moon is Illuminated
May 6
Waning Crescent
May 9
New
May 17
First Quarter
May 24
Full
May 31
Last Quarter

Hourly Weather History & Observations

Time (CDT) Temp. Dew Point Humidity Pressure Visibility Wind Dir Wind Speed Gust Speed Precip Events Conditions
12:53 AM 52.0 °F 48.9 °F 89% 30.11 in 9.0 mi North 11.5 mph - N/A   Overcast
1:53 AM 52.0 °F 48.9 °F 89% 30.09 in 8.0 mi NNW 11.5 mph - N/A   Overcast
2:38 AM 51.8 °F 48.2 °F 88% 30.08 in 8.0 mi NNW 9.2 mph - N/A   Overcast
2:53 AM 52.0 °F 48.9 °F 89% 30.08 in 8.0 mi NNW 11.5 mph - N/A   Overcast
3:53 AM 51.1 °F 48.9 °F 92% 30.08 in 7.0 mi North 6.9 mph - N/A   Overcast
4:53 AM 51.1 °F 48.9 °F 92% 30.09 in 6.0 mi North 8.1 mph - N/A   Overcast
5:53 AM 50.0 °F 48.9 °F 96% 30.10 in 3.0 mi North 8.1 mph - N/A   Overcast
6:53 AM 50.0 °F 48.9 °F 96% 30.11 in 4.0 mi NNW 9.2 mph - N/A   Overcast
7:53 AM 50.0 °F 48.9 °F 96% 30.12 in 5.0 mi NNW 10.4 mph - N/A   Overcast
8:53 AM 51.1 °F 48.9 °F 92% 30.13 in 6.0 mi North 10.4 mph - N/A   Overcast
9:53 AM 51.1 °F 48.9 °F 92% 30.13 in 6.0 mi NNW 9.2 mph - N/A   Overcast
10:53 AM 53.1 °F 48.9 °F 86% 30.13 in 8.0 mi NNW 8.1 mph - N/A   Overcast
11:53 AM 55.0 °F 50.0 °F 83% 30.13 in 10.0 mi North 6.9 mph - N/A   Overcast
12:31 PM 55.4 °F 50.0 °F 82% 30.13 in 10.0 mi NNE 4.6 mph - N/A   Overcast
12:53 PM 57.0 °F 51.1 °F 81% 30.12 in 10.0 mi NNW 3.5 mph - N/A   Overcast
1:36 PM 60.8 °F 51.8 °F 72% 30.11 in 10.0 mi Variable 4.6 mph - N/A   Overcast
1:53 PM 61.0 °F 52.0 °F 72% 30.11 in 10.0 mi NNW 8.1 mph - N/A   Overcast
2:53 PM 64.0 °F 52.0 °F 65% 30.08 in 10.0 mi NNW 3.5 mph - N/A   Scattered Clouds
3:53 PM 66.0 °F 54.0 °F 65% 30.06 in 10.0 mi NNW 6.9 mph - N/A   Clear
4:53 PM 66.0 °F 55.0 °F 68% 30.04 in 10.0 mi West 11.5 mph - N/A   Clear
5:53 PM 66.0 °F 55.0 °F 68% 30.03 in 10.0 mi West 5.8 mph - N/A   Clear
6:53 PM 66.9 °F 54.0 °F 63% 30.03 in 10.0 mi North 4.6 mph - N/A   Clear
7:53 PM 62.1 °F 55.9 °F 80% 30.03 in 9.0 mi WNW 4.6 mph - N/A   Clear
8:53 PM 57.0 °F 53.1 °F 87% 30.05 in 7.0 mi WNW 5.8 mph - N/A   Clear
9:53 PM 57.0 °F 54.0 °F 89% 30.08 in 7.0 mi Calm Calm - N/A   Clear
10:53 PM 52.0 °F 51.1 °F 97% 30.08 in 4.0 mi Calm Calm - N/A   Clear
11:27 PM 51.8 °F 50.0 °F 94% 30.08 in 1.5 mi Calm Calm - N/A   Clear
11:32 PM 48.2 °F 48.2 °F 100% 30.08 in 0.5 mi Calm Calm - N/A Fog Fog
11:38 PM 50.0 °F 48.2 °F 94% 30.08 in 0.8 mi Calm Calm - N/A   Mist
11:42 PM 51.8 °F 50.0 °F 94% 30.08 in 1.8 mi Calm Calm - N/A   Partly Cloudy
11:44 PM 51.8 °F 50.0 °F 94% 30.08 in 3.0 mi Calm Calm - N/A   Clear
11:53 PM 48.9 °F 48.0 °F 97% 30.08 in 5.0 mi Calm Calm - N/A   Clear